| time (UTC) | temp F | wind direction | speed MPH | gust MPH | rain 1hr in | rain 24hr in | rain mn in | humidity % | barometer mb |
| 20260903173303 | 73 | 90 | 6.0 | 0.0 | 0.00 | 0.00 | 0.00 | 50 | 1016.0 |
| 20260903171803 | 79 | 80 | 6.0 | 0.0 | 0.00 | 0.00 | 0.00 | 39 | 1016.0 |
| 20260903170302 | 79 | 80 | 6.0 | 0.0 | 0.00 | 0.00 | 0.00 | 39 | 1016.0 |
| 20260903164802 | 81 | 90 | 6.0 | 0.0 | 0.00 | 0.00 | 0.00 | 39 | 1015.0 |
| 20260903163302 | 81 | 90 | 6.0 | 0.0 | 0.00 | 0.00 | 0.00 | 39 | 1015.0 |
| 20260903161802 | 81 | 100 | 6.0 | 0.0 | 0.00 | 0.00 | 0.00 | 42 | 1015.0 |
| 20260903160303 | 81 | 100 | 6.0 | 0.0 | 0.00 | 0.00 | 0.00 | 42 | 1015.0 |
| 20260903154803 | 84 | 80 | 5.0 | 0.0 | 0.00 | 0.00 | 0.00 | 31 | 1015.0 |
| 20260903153303 | 84 | 80 | 5.0 | 0.0 | 0.00 | 0.00 | 0.00 | 31 | 1015.0 |
| 20260903151803 | 84 | 50 | 8.0 | 0.0 | 0.00 | 0.00 | 0.00 | 33 | 1015.0 |
| 20260903150303 | 84 | 50 | 8.0 | 0.0 | 0.00 | 0.00 | 0.00 | 33 | 1015.0 |
| 20260903144802 | 86 | 120 | 6.0 | 0.0 | 0.00 | 0.00 | 0.00 | 33 | 1015.0 |
| 20260903143303 | 86 | 120 | 6.0 | 0.0 | 0.00 | 0.00 | 0.00 | 33 | 1015.0 |
| 20260903141803 | 84 | 1.0 | 0.0 | 0.00 | 0.00 | 0.00 | 33 | 1016.0 | |
| 20260903140302 | 84 | 1.0 | 0.0 | 0.00 | 0.00 | 0.00 | 33 | 1016.0 | |
| 20260903134802 | 86 | 3.0 | 0.0 | 0.00 | 0.00 | 0.00 | 31 | 1016.0 | |
| 20260903133301 | 86 | 3.0 | 0.0 | 0.00 | 0.00 | 0.00 | 31 | 1016.0 | |
| 20260903131802 | 84 | 3.0 | 0.0 | 0.00 | 0.00 | 0.00 | 33 | 1016.0 | |
| 20260903130303 | 84 | 3.0 | 0.0 | 0.00 | 0.00 | 0.00 | 33 | 1016.0 | |
| 20260903124802 | 84 | 50 | 8.0 | 0.0 | 0.00 | 0.00 | 0.00 | 35 | 1016.0 |
| 20260903123313 | 84 | 50 | 8.0 | 0.0 | 0.00 | 0.00 | 0.00 | 35 | 1016.0 |
| 20260903121802 | 86 | 100 | 9.0 | 0.0 | 0.00 | 0.00 | 0.00 | 35 | 1016.0 |
| 20260903120303 | 86 | 100 | 9.0 | 0.0 | 0.00 | 0.00 | 0.00 | 35 | 1016.0 |
| 20260903114803 | 82 | 50 | 10.0 | 0.0 | 0.00 | 0.00 | 0.00 | 40 | 1017.0 |
| 20260903113302 | 82 | 50 | 10.0 | 0.0 | 0.00 | 0.00 | 0.00 | 40 | 1017.0 |
| 20260903111803 | 84 | 60 | 11.0 | 0.0 | 0.00 | 0.00 | 0.00 | 43 | 1017.0 |
| 20260903110302 | 84 | 60 | 11.0 | 0.0 | 0.00 | 0.00 | 0.00 | 43 | 1017.0 |
| 20260903104802 | 84 | 70 | 10.0 | 0.0 | 0.00 | 0.00 | 0.00 | 45 | 1017.0 |
| 20260903103302 | 84 | 70 | 10.0 | 0.0 | 0.00 | 0.00 | 0.00 | 45 | 1017.0 |
| 20260903101802 | 82 | 50 | 10.0 | 0.0 | 0.00 | 0.00 | 0.00 | 48 | 1017.0 |
| 20260903100303 | 82 | 50 | 10.0 | 0.0 | 0.00 | 0.00 | 0.00 | 48 | 1017.0 |
| 20260903094802 | 82 | 70 | 13.0 | 0.0 | 0.00 | 0.00 | 0.00 | 48 | 1018.0 |
| 20260903093302 | 82 | 70 | 13.0 | 0.0 | 0.00 | 0.00 | 0.00 | 48 | 1018.0 |
| 20260903091819 | 81 | 80 | 13.0 | 0.0 | 0.00 | 0.00 | 0.00 | 51 | 1018.0 |
| 20260903090318 | 81 | 80 | 13.0 | 0.0 | 0.00 | 0.00 | 0.00 | 51 | 1018.0 |
| 20260903084802 | 79 | 80 | 14.0 | 0.0 | 0.00 | 0.00 | 0.00 | 54 | 1018.0 |
| 20260903083302 | 79 | 80 | 14.0 | 0.0 | 0.00 | 0.00 | 0.00 | 54 | 1018.0 |
| 20260903081802 | 79 | 70 | 14.0 | 0.0 | 0.00 | 0.00 | 0.00 | 58 | 1018.0 |
| 20260903080302 | 79 | 70 | 14.0 | 0.0 | 0.00 | 0.00 | 0.00 | 58 | 1018.0 |
| 20260903074803 | 77 | 70 | 15.0 | 0.0 | 0.00 | 0.00 | 0.00 | 57 | 1018.0 |
| 20260903073302 | 77 | 70 | 15.0 | 0.0 | 0.00 | 0.00 | 0.00 | 57 | 1018.0 |
| 20260903071802 | 75 | 70 | 14.0 | 0.0 | 0.00 | 0.00 | 0.00 | 65 | 1018.0 |
| 20260903070302 | 75 | 70 | 14.0 | 0.0 | 0.00 | 0.00 | 0.00 | 65 | 1018.0 |
| 20260903064802 | 73 | 60 | 11.0 | 0.0 | 0.00 | 0.00 | 0.00 | 69 | 1018.0 |
| 20260903063302 | 73 | 60 | 11.0 | 0.0 | 0.00 | 0.00 | 0.00 | 69 | 1018.0 |
| 20260903061802 | 72 | 50 | 9.0 | 0.0 | 0.00 | 0.00 | 0.00 | 73 | 1018.0 |
| 20260903060306 | 72 | 50 | 9.0 | 0.0 | 0.00 | 0.00 | 0.00 | 73 | 1018.0 |
| 20260903054807 | 68 | 30 | 8.0 | 0.0 | 0.00 | 0.00 | 0.00 | 83 | 1018.0 |
| 20260903053302 | 68 | 30 | 8.0 | 0.0 | 0.00 | 0.00 | 0.00 | 83 | 1018.0 |
| 20260903051802 | 68 | 60 | 8.0 | 0.0 | 0.00 | 0.00 | 0.00 | 83 | 1018.0 |
| 20260903050303 | 68 | 60 | 8.0 | 0.0 | 0.00 | 0.00 | 0.00 | 83 | 1018.0 |
| 20260903044802 | 66 | 60 | 9.0 | 0.0 | 0.00 | 0.00 | 0.00 | 88 | 1017.0 |
| 20260903043302 | 66 | 60 | 9.0 | 0.0 | 0.00 | 0.00 | 0.00 | 88 | 1017.0 |
| 20260903041801 | 66 | 30 | 9.0 | 0.0 | 0.00 | 0.00 | 0.00 | 88 | 1017.0 |
| 20260903040302 | 66 | 30 | 9.0 | 0.0 | 0.00 | 0.00 | 0.00 | 88 | 1017.0 |
| 20260903034802 | 68 | 50 | 9.0 | 0.0 | 0.00 | 0.00 | 0.00 | 83 | 1017.0 |
| 20260903033302 | 68 | 50 | 9.0 | 0.0 | 0.00 | 0.00 | 0.00 | 83 | 1017.0 |
| 20260903031802 | 68 | 20 | 9.0 | 0.0 | 0.00 | 0.00 | 0.00 | 83 | 1017.0 |
| 20260903030408 | 68 | 20 | 8.0 | 0.0 | 0.00 | 0.00 | 0.00 | 83 | 1017.0 |
| 20260903024908 | 68 | 20 | 8.0 | 0.0 | 0.00 | 0.00 | 0.00 | 83 | 1017.0 |
| 20260903023350 | 68 | 20 | 8.0 | 0.0 | 0.00 | 0.00 | 0.00 | 83 | 1017.0 |
| 20260903021801 | 68 | 20 | 8.0 | 0.0 | 0.00 | 0.00 | 0.00 | 83 | 1017.0 |
| 20260903020415 | 70 | 40 | 6.0 | 0.0 | 0.00 | 0.00 | 0.00 | 73 | 1017.0 |
| 20260903014803 | 70 | 40 | 6.0 | 0.0 | 0.00 | 0.00 | 0.00 | 73 | 1017.0 |
| 20260903013301 | 70 | 40 | 6.0 | 0.0 | 0.00 | 0.00 | 0.00 | 73 | 1017.0 |
| 20260903011802 | 70 | 60 | 7.0 | 0.0 | 0.00 | 0.00 | 0.00 | 73 | 1017.0 |
| 20260903010302 | 70 | 60 | 7.0 | 0.0 | 0.00 | 0.00 | 0.00 | 73 | 1017.0 |
| 20260903004802 | 72 | 30 | 7.0 | 0.0 | 0.00 | 0.00 | 0.00 | 69 | 1017.0 |
| 20260903003302 | 72 | 30 | 7.0 | 0.0 | 0.00 | 0.00 | 0.00 | 69 | 1017.0 |
| 20260903001802 | 72 | 30 | 9.0 | 0.0 | 0.00 | 0.00 | 0.00 | 65 | 1017.0 |
| 20260903000303 | 72 | 30 | 9.0 | 0.0 | 0.00 | 0.00 | 0.00 | 65 | 1017.0 |
| 20260902234802 | 70 | 50 | 6.0 | 0.0 | 0.00 | 0.00 | 0.00 | 73 | 1017.0 |
| 20260902233302 | 70 | 50 | 8.0 | 0.0 | 0.00 | 0.00 | 0.00 | 73 | 1017.0 |
| 20260902231802 | 70 | 30 | 14.0 | 0.0 | 0.00 | 0.00 | 0.00 | 73 | 1018.0 |
| 20260902230301 | 70 | 30 | 14.0 | 0.0 | 0.00 | 0.00 | 0.00 | 73 | 1018.0 |
| 20260902224802 | 70 | 10 | 10.0 | 0.0 | 0.00 | 0.00 | 0.00 | 73 | 1018.0 |
| 20260902223302 | 70 | 10 | 10.0 | 0.0 | 0.00 | 0.00 | 0.00 | 73 | 1018.0 |
| 20260902221802 | 70 | 360 | 9.0 | 0.0 | 0.00 | 0.00 | 0.00 | 73 | 1018.0 |
| 20260902220302 | 70 | 360 | 9.0 | 0.0 | 0.00 | 0.00 | 0.00 | 73 | 1018.0 |
| 20260902214802 | 70 | 10 | 5.0 | 0.0 | 0.00 | 0.00 | 0.00 | 73 | 1018.0 |
| 20260902213301 | 70 | 10 | 5.0 | 0.0 | 0.00 | 0.00 | 0.00 | 73 | 1018.0 |
| 20260902211802 | 70 | 40 | 6.0 | 0.0 | 0.00 | 0.00 | 0.00 | 73 | 1018.0 |
| 20260902210302 | 70 | 40 | 6.0 | 0.0 | 0.00 | 0.00 | 0.00 | 73 | 1018.0 |
| 20260902204801 | 70 | 50 | 5.0 | 0.0 | 0.00 | 0.00 | 0.00 | 73 | 1017.0 |
| 20260902203302 | 70 | 50 | 5.0 | 0.0 | 0.00 | 0.00 | 0.00 | 73 | 1017.0 |
| 20260902201802 | 72 | 30 | 7.0 | 0.0 | 0.00 | 0.00 | 0.00 | 65 | 1017.0 |
| 20260902200317 | 72 | 30 | 7.0 | 0.0 | 0.00 | 0.00 | 0.00 | 65 | 1017.0 |
| 20260902194802 | 72 | 20 | 8.0 | 0.0 | 0.00 | 0.00 | 0.00 | 65 | 1018.0 |
| 20260902193302 | 72 | 20 | 8.0 | 0.0 | 0.00 | 0.00 | 0.00 | 65 | 1018.0 |
| 20260902191802 | 72 | 20 | 8.0 | 0.0 | 0.00 | 0.00 | 0.00 | 65 | 1017.0 |
| 20260902190302 | 72 | 20 | 8.0 | 0.0 | 0.00 | 0.00 | 0.00 | 65 | 1017.0 |
| 20260902184802 | 73 | 10 | 9.0 | 0.0 | 0.00 | 0.00 | 0.00 | 61 | 1017.0 |
| 20260902183301 | 73 | 10 | 9.0 | 0.0 | 0.00 | 0.00 | 0.00 | 61 | 1017.0 |
| 20260902181802 | 73 | 360 | 14.0 | 0.0 | 0.00 | 0.00 | 0.00 | 61 | 1017.0 |
| 20260902180301 | 73 | 360 | 14.0 | 0.0 | 0.00 | 0.00 | 0.00 | 61 | 1017.0 |
| 20260902174802 | 75 | 360 | 16.0 | 0.0 | 0.00 | 0.00 | 0.00 | 57 | 1017.0 |